This is the latest recevied weather packets stored in our database for station/object N7NIP. If no packets are shown the sender has not sent any weather packets the latest 10 day(s).
| Time | Temp. | Humidity | Pressure | Rain* | Wind** | Luminosity | Snow |
|---|---|---|---|---|---|---|---|
| 1778127420 | 11.67° C | 87% | 1035.1 hPa | 0 mm | - | 0 W/m² | - |
| 1778127116 | 11.67° C | 87% | 1034.9 hPa | 0 mm | - | 0 W/m² | - |
| 1778126814 | 11.67° C | 87% | 1035 hPa | 0 mm | - | 0 W/m² | - |
| 1778126510 | 11.67° C | 86% | 1035.1 hPa | 0 mm | - | 0 W/m² | - |
| 1778126206 | 11.67° C | 85% | 1034.8 hPa | 0 mm | - | 0 W/m² | - |
| 1778125902 | 12.22° C | 86% | 1034.9 hPa | 0 mm | - | 0 W/m² | - |
| 1778125599 | 12.22° C | 85% | 1034.7 hPa | 0 mm | - | 0 W/m² | - |
| 1778125296 | 12.22° C | 83% | 1034.8 hPa | 0 mm | - | 0 W/m² | - |
| 1778124995 | 12.22° C | 83% | 1034.9 hPa | 0 mm | - | 1 W/m² | - |
| 1778124691 | 12.22° C | 85% | 1034.7 hPa | 0 mm | - | 1 W/m² | - |
| 1778124389 | 12.22° C | 84% | 1034.7 hPa | 0 mm | - | 2 W/m² | - |
| 1778124085 | 12.22° C | 83% | 1034.7 hPa | 0 mm | - | 3 W/m² | - |
| 1778123782 | 12.78° C | 82% | 1034.6 hPa | 0 mm | - | 5 W/m² | - |
| 1778123478 | 12.78° C | 81% | 1034.5 hPa | 0 mm | - | 7 W/m² | - |
| 1778123175 | 12.78° C | 80% | 1034.6 hPa | 0 mm | - | 9 W/m² | - |
| 1778122873 | 12.78° C | 79% | 1034.8 hPa | 0 mm | - | 10 W/m² | - |
| 1778122570 | 12.78° C | 79% | 1034.7 hPa | 0 mm | - | 11 W/m² | - |
| 1778122267 | 12.78° C | 80% | 1034.6 hPa | 0 mm | - | 11 W/m² | - |
| 1778121965 | 12.78° C | 80% | 1034.6 hPa | 0 mm | - | 14 W/m² | - |
| 1778121662 | 12.78° C | 79% | 1034.6 hPa | 0 mm | - | 18 W/m² | - |
| 1778121357 | 12.78° C | 79% | 1034.5 hPa | 0 mm | - | 18 W/m² | - |
| 1778121055 | 12.78° C | 79% | 1034.5 hPa | 0 mm | - | 18 W/m² | - |
| 1778120751 | 12.78° C | 78% | 1034.4 hPa | 0 mm | - | 15 W/m² | - |
| 1778120446 | 12.78° C | 78% | 1034.7 hPa | 0 mm | - | 13 W/m² | - |
| 1778120143 | 13.33° C | 77% | 1034.5 hPa | 0 mm | - | 18 W/m² | - |
* Rain latest hour (hover to see other rain measurements)
** Current wind speed in m/s (hover to see current wind gust speed)